Location: Starlight Cascade Observatory
(44.3775°N, 76.7633°W)
Time: 11:42:54
(UTC-05:00)

ISS - Visible Passes

Search period start: 02 December 2020 00:00
Search period end: 12 December 2020 00:00
Orbit: 418 x 420 km, 51.6° (Epoch: 02 December)

Date Brightness Start Highest point End Pass type
(mag) Time Alt. Az. Time Alt. Az. Time Alt. Az.
02 Dec -2.3 18:30:06 10° NW 18:32:13 29° NNW 18:32:13 29° NNW visible
03 Dec -2.7 17:42:33 10° NW 17:45:36 31° NNE 17:46:43 24° NE visible
03 Dec -0.6 19:19:16 10° WNW 19:19:41 13° WNW 19:19:41 13° WNW visible
04 Dec -3.1 18:31:40 10° WNW 18:34:18 51° NW 18:34:18 51° NW visible
05 Dec -3.6 17:44:07 10° NW 17:47:25 53° NNE 17:49:03 26° E visible
05 Dec -0.6 19:21:15 10° W 19:22:03 15° W 19:22:03 15° W visible
06 Dec -3.1 16:56:33 10° NW 16:59:45 39° NNE 17:02:56 10° E visible
06 Dec -2.6 18:33:23 10° WNW 18:36:34 39° SW 18:36:59 37° SSW visible
07 Dec -3.4 17:45:41 10° WNW 17:49:01 65° SW 17:52:13 11° SE visible
08 Dec -3.8 16:58:02 10° WNW 17:01:25 80° NNE 17:04:47 10° ESE visible
08 Dec -0.8 18:35:46 10° W 18:37:50 15° SW 18:39:53 10° S visible
09 Dec -1.4 17:47:34 10° W 17:50:22 25° SW 17:53:10 10° SSE visible
10 Dec -2.2 16:59:40 10° WNW 17:02:51 40° SW 17:06:01 10° SSE visible
